[[{"header":{"parameterUnit":"m.s-1","parameterCategory":1,"la1":30.2991,"la2":30.254,"lo1":-89.0895,"lo2":-89.0444,"dy":0.0017,"dx":0.0017,"nx":28,"ny":28,"refTime":"2024-08-17T03:00:00:Z","depth":0,"parameterNumber":2,"parameterNumberName":"U-component_of_WINDS"},"data":[0,0,0,0,0,0,0,0,0,0,0,0,0,0,0,0,0,0,0,0,0,0,0,0,0,0,0,0,0,0,0,0,0,0,0,0,0,0,0,0,0,0,0,0,0,0,0,0,0,0,0,0,0,0,0,0,0,0,0.738,0.7379,0,0.7353,0.7353,0.7353,0.7348,0.7348,0.7348,0.7348,0.7319,0.7318,0.7317,0,0,0,0,0,0,0,0,0,0,0,0,0,0.7424,0.7423,0.738,0.7379,0.7379,0.7353,0.7353,0.7352,0.7348,0.7348,0.7348,0.7348,0.7319,0.7318,0.7317,0,0,0,0,0,0,0,0,0,0,0,0,0,0.7402,0.7423,0.738,0.7374,0.7373,0.7353,0.7353,0.7352,0.7348,0.7348,0.7348,0.7349,0.7319,0.7318,0.7316,0.7301,0,0,0.7312,0.7311,0,0,0,0,0,0,0,0,0.7403,0.74,0.7375,0.7374,0.7373,0.7354,0.7357,0.7335,0.7347,0.7357,0.7348,0.7349,0.733,0.7328,0.7322,0.7299,0.7298,0.7312,0.7311,0.731,0.731,0,0,0,0,0,0,0,0.7404,0.7401,0.7369,0.7375,0.7373,0.7371,0.7369,0.7353,0.7342,0.7356,0.7356,0.7353,0.733,0.7323,0.7321,0.7297,0.7312,0.731,0.731,0.7309,0.7259,0.7259,0,0,0,0,0,0,0.7407,0.7402,0.737,0.7368,0.7389,0.737,0.7367,0.736,0.7342,0.734,0.7353,0.7353,0.7326,0.7323,0.732,0.7299,0.731,0.7309,0.7308,0.7259,0.7259,0.7258,0,0,0,0,0,0,0.7408,0.7405,0.7371,0.7385,0.7381,0.7369,0.7361,0.7359,0.7353,0.7339,0.7337,0.7348,0.7326,0.7322,0.7305,0.7298,0.7308,0.7307,0.726,0.7259,0.7259,0.7258,0,0,0,0,0,0,0.741,0.7405,0.7399,0.7385,0.738,0.7358,0.7361,0.7358,0.7351,0.735,0.7335,0.7333,0.7326,0.7308,0.7304,0.7296,0.7306,0.726,0.726,0.7259,0.7259,0.7258,0.7257,0,0,0,0,0,0.7411,0.74,0.7399,0.7395,0.7373,0.7357,0.7354,0.7347,0.735,0.7344,0.7335,0.7333,0.73,0.7306,0.7302,0.7294,0.7261,0.726,0.7259,0.7259,0.7258,0.7257,0,0,0,0,0,0,0.7413,0.7398,0.7397,0.7381,0.7371,0.7356,0.7348,0.7346,0.7334,0.7334,0.7326,0.7322,0.7306,0.7298,0.7305,0.7277,0.728,0.7279,0.7282,0.7281,0.728,0.7281,0.7304,0,0,0,0,0,0.7412,0.7401,0.7388,0.7375,0.737,0.736,0.7353,0.7349,0.7337,0.7332,0.7322,0.7311,0.7297,0.7289,0.7276,0.7258,0.7254,0.725,0.7249,0.7248,0.7246,0.7235,0.7233,0.7255,0.7255,0.7255,0,0,0.7409,0.7399,0.7393,0.7375,0.7367,0.7355,0.7356,0.7344,0.7334,0.733,0.7314,0.7306,0.7292,0.7274,0.7266,0.7267,0.7239,0.7247,0.7247,0.7245,0.7234,0.7232,0.723,0.7255,0.7255,0.7255,0,0,0.7396,0.7389,0.7377,0.7368,0.7355,0.7349,0.7346,0.7332,0.7327,0.731,0.7306,0.7295,0.7273,0.7262,0.7254,0.7238,0.7235,0.7234,0.7228,0.7217,0.7215,0.7214,0.7207,0.7204,0.7233,0.7233,0.7233,0,0.7394,0.7376,0.7371,0.7358,0.735,0.7346,0.7333,0.7325,0.7308,0.7302,0.7305,0.7276,0.7267,0.7246,0.7242,0.7236,0.7231,0.7236,0.7216,0.7215,0.7213,0.7206,0.7204,0.7233,0.7233,0.7233,0.7233,0,0.7373,0.7361,0.7353,0.7337,0.7328,0.7316,0.7307,0.7299,0.7295,0.7288,0.727,0.7259,0.7243,0.7238,0.7234,0.7217,0.7218,0.7218,0.7222,0.7211,0.7204,0.7202,0.7232,0.7232,0.7232,0.7233,0,0,0.7361,0.7343,0.7339,0.7332,0.7317,0.7307,0.7294,0.7279,0.7272,0.726,0.7248,0.7229,0.7229,0.722,0.7215,0.7206,0.7192,0.7207,0.7207,0.7204,0.717,0.7169,0.7166,0.7191,0.719,0.719,0.7171,0,0.7346,0.7323,0.7317,0.7297,0.7285,0.7282,0.727,0.7259,0.7252,0.724,0.7232,0.7218,0.722,0.7215,0.7205,0.7196,0.7185,0.7197,0.7178,0.7177,0.718,0.7163,0.7161,0.7144,0.7168,0.7168,0.7168,0,0.7326,0.7314,0.7293,0.7279,0.7274,0.7264,0.7249,0.7238,0.7226,0.7221,0.7211,0.7207,0.7192,0.7197,0.7175,0.7183,0.7175,0.7169,0.7168,0.7165,0.7171,0.7158,0.7138,0.7135,0.7164,0.7164,0.7164,0,0.7318,0.7297,0.7281,0.7275,0.7259,0.7251,0.7244,0.7232,0.7223,0.721,0.7204,0.719,0.7181,0.717,0.7161,0.7166,0.714,0.7145,0.7134,0.7134,0.7128,0.7128,0.7106,0.7125,0.7125,0.7125,0.7125,0,0.7301,0.7288,0.7277,0.7267,0.7252,0.7245,0.723,0.7223,0.7212,0.7199,0.7196,0.7184,0.7174,0.7161,0.7155,0.7137,0.7133,0.7128,0.7126,0.7128,0.7128,0.7121,0.7122,0.7124,0.7124,0.7125,0.7125,0,0.7289,0.7281,0.7264,0.725,0.7246,0.7235,0.7223,0.7213,0.7206,0.719,0.7186,0.7175,0.7159,0.715,0.713,0.7126,0.7105,0.7105,0.711,0.7109,0.7098,0.7099,0.7069,0.7064,0.7088,0.7088,0.7088,0,0.7278,0.7268,0.7253,0.7245,0.7238,0.7225,0.7216,0.7209,0.7199,0.7184,0.7175,0.7159,0.7146,0.7121,0.711,0.7095,0.7093,0.7083,0.709,0.7092,0.7091,0.7091,0.7089,0.7082,0.7082,0.7081,0.7081,0,0.726,0.7256,0.7244,0.723,0.722,0.7208,0.7197,0.719,0.7181,0.7171,0.7155,0.7145,0.7124,0.7108,0.7092,0.7083,0.708,0.7079,0.7076,0.7077,0.7079,0.7076,0.7105,0.708,0.708,0.708,0.708,0.708,0.7247,0.7237,0.7225,0.7211,0.7202,0.7191,0.7181,0.7172,0.7159,0.7143,0.7139,0.7122,0.7108,0.7086,0.7077,0.7063,0.7064,0.706,0.7058,0.7057,0.7055,0.7083,0.706,0.706,0.706,0.706,0.706,0,0.7227,0.7219,0.7206,0.7191,0.7179,0.7179,0.7166,0.7156,0.7141,0.713,0.7117,0.7098,0.7082,0.707,0.7054,0.7044,0.7042,0.704,0.704,0.7038,0.7056,0.706,0.7042,0.7042,0.7042,0.7042,0.7042,0.7042,0.7215,0.7198,0.7193,0.7171,0.7163,0.7147,0.714,0.7129,0.7119,0.7099,0.7086,0.7079,0.7066,0.7049,0.7033,0.703,0.7024,0.7021,0.7018,0.7035,0.7036,0.7038,0.7042,0.702,0.702,0.7,0.7,0.7]},{"header":{"parameterUnit":"m.s-1","parameterCategory":1,"la1":30.2991,"la2":30.254,"lo1":-89.0895,"lo2":-89.0444,"dy":0.0017,"dx":0.0017,"nx":28,"ny":28,"refTime":"2024-08-17T03:00:00:Z","depth":0,"parameterNumber":3,"parameterNumberName":"V-component_of_WINDS"},"data":[0,0,0,0,0,0,0,0,0,0,0,0,0,0,0,0,0,0,0,0,0,0,0,0,0,0,0,0,0,0,0,0,0,0,0,0,0,0,0,0,0,0,0,0,0,0,0,0,0,0,0,0,0,0,0,0,0,0,1.8662,1.8662,0,1.8677,1.8677,1.8677,1.8656,1.8655,1.8654,1.8654,1.8668,1.8669,1.867,0,0,0,0,0,0,0,0,0,0,0,0,0,1.8613,1.8614,1.8662,1.8662,1.8662,1.8677,1.8677,1.8677,1.8656,1.8655,1.8654,1.8653,1.8667,1.8669,1.867,0,0,0,0,0,0,0,0,0,0,0,0,0,1.8631,1.8614,1.8662,1.8653,1.8653,1.8677,1.8677,1.8677,1.8656,1.8655,1.8654,1.8653,1.8667,1.8669,1.867,1.8703,0,0,1.8675,1.8676,0,0,0,0,0,0,0,0,1.863,1.8633,1.8654,1.8654,1.8653,1.8663,1.8665,1.8686,1.8656,1.8655,1.8654,1.8652,1.8667,1.8669,1.8674,1.8704,1.8704,1.8675,1.8676,1.8677,1.8677,0,0,0,0,0,0,0,1.8629,1.8633,1.8668,1.8655,1.8654,1.8648,1.865,1.8669,1.8667,1.8655,1.8653,1.8655,1.8667,1.8672,1.8674,1.8704,1.8675,1.8677,1.8678,1.8678,1.876,1.8762,0,0,0,0,0,0,1.8629,1.8632,1.8667,1.8668,1.8639,1.865,1.8652,1.8661,1.8667,1.8667,1.8656,1.8654,1.867,1.8672,1.8675,1.8712,1.8677,1.8678,1.8679,1.8759,1.8761,1.8762,0,0,0,0,0,0,1.8628,1.8632,1.8667,1.8649,1.8653,1.8652,1.8663,1.8662,1.8668,1.8668,1.8667,1.8663,1.8669,1.8672,1.8696,1.8712,1.8679,1.8681,1.8758,1.876,1.8761,1.8788,0,0,0,0,0,0,1.8627,1.8632,1.8645,1.865,1.8654,1.8688,1.8664,1.8663,1.8671,1.8668,1.8674,1.8674,1.8669,1.8693,1.8697,1.8714,1.8682,1.8756,1.8759,1.8761,1.8786,1.8791,1.8795,0,0,0,0,0,1.8625,1.8652,1.8646,1.865,1.867,1.8689,1.8692,1.8686,1.8672,1.8685,1.8685,1.8673,1.871,1.8696,1.87,1.8718,1.8755,1.8758,1.8761,1.8784,1.879,1.8795,0,0,0,0,0,0,1.8649,1.8652,1.8646,1.8675,1.8682,1.8685,1.8701,1.8692,1.8703,1.87,1.8692,1.8694,1.8719,1.8721,1.8705,1.8749,1.873,1.8734,1.8747,1.8752,1.8757,1.8755,1.8683,0,0,0,0,0,1.8657,1.8673,1.8675,1.8701,1.8705,1.8702,1.871,1.8705,1.8712,1.8715,1.8716,1.8723,1.8736,1.8744,1.8756,1.8787,1.8787,1.8801,1.8805,1.8809,1.8812,1.8827,1.8832,1.8771,1.8771,1.8771,0,0,1.8675,1.8679,1.8689,1.8705,1.871,1.8726,1.8705,1.8722,1.8733,1.8717,1.8739,1.8741,1.8748,1.8774,1.8786,1.8777,1.8829,1.8812,1.8815,1.8816,1.883,1.8836,1.8841,1.8773,1.8772,1.8772,0,0,1.8715,1.872,1.8742,1.8747,1.8755,1.8753,1.8758,1.8763,1.8764,1.8786,1.8774,1.8787,1.881,1.8814,1.882,1.8862,1.8851,1.8866,1.8889,1.8904,1.8909,1.8913,1.8927,1.8932,1.8869,1.8869,1.8869,0,1.8736,1.8759,1.8754,1.8772,1.8779,1.8765,1.8786,1.8792,1.8803,1.8808,1.8797,1.8825,1.8829,1.8856,1.8866,1.8872,1.8876,1.8865,1.8909,1.8913,1.8917,1.893,1.8935,1.8871,1.8871,1.8871,1.8871,0,1.8784,1.88,1.8817,1.8828,1.8837,1.8856,1.8853,1.8863,1.8857,1.8856,1.8879,1.8883,1.8895,1.8901,1.8896,1.8928,1.8921,1.891,1.8891,1.8924,1.8936,1.8941,1.8873,1.8873,1.8872,1.8872,0,0,1.8838,1.8846,1.8852,1.8857,1.8864,1.8876,1.8895,1.8907,1.8915,1.8924,1.8938,1.8958,1.8947,1.8954,1.8949,1.8962,1.8994,1.8949,1.8949,1.8956,1.9027,1.9035,1.904,1.8987,1.8988,1.8989,1.9026,0,1.8877,1.891,1.8905,1.8936,1.895,1.8938,1.8954,1.896,1.896,1.8972,1.8972,1.8985,1.8971,1.8975,1.8987,1.8987,1.9007,1.8985,1.9,1.9,1.8997,1.9047,1.9055,1.909,1.9031,1.9032,1.9032,0,1.8926,1.8937,1.8969,1.8974,1.898,1.8994,1.9005,1.9017,1.9023,1.9022,1.9029,1.9022,1.904,1.9022,1.9045,1.903,1.9036,1.9037,1.9038,1.9038,1.9017,1.9047,1.9101,1.9105,1.904,1.9039,1.9039,0,1.8961,1.8983,1.9005,1.9009,1.9016,1.9026,1.9029,1.9035,1.9042,1.9051,1.9056,1.9067,1.9073,1.9082,1.9077,1.9065,1.9102,1.9083,1.91,1.91,1.9107,1.9107,1.9162,1.9114,1.9114,1.9114,1.9114,0,1.9004,1.9024,1.902,1.9034,1.9055,1.905,1.9072,1.9073,1.9078,1.9091,1.9082,1.9094,1.9088,1.91,1.9097,1.9116,1.9119,1.9118,1.9117,1.9118,1.9118,1.9121,1.9118,1.9115,1.9115,1.9115,1.9114,0,1.9045,1.9044,1.9067,1.9071,1.9073,1.9089,1.9092,1.9104,1.9104,1.912,1.9124,1.9123,1.9136,1.9133,1.9148,1.9145,1.917,1.9166,1.9167,1.9166,1.9183,1.9181,1.924,1.9247,1.9196,1.9197,1.9197,0,1.9072,1.9087,1.9093,1.9101,1.9105,1.9119,1.9126,1.9122,1.913,1.9138,1.9149,1.9162,1.9171,1.9193,1.9193,1.9204,1.92,1.922,1.9201,1.9202,1.9198,1.9197,1.9198,1.9223,1.9224,1.9224,1.9225,0,1.9119,1.9118,1.9129,1.9141,1.915,1.9159,1.9166,1.9173,1.9169,1.9179,1.9193,1.92,1.9215,1.9227,1.9237,1.924,1.9231,1.9231,1.9235,1.9236,1.9235,1.9234,1.9176,1.9229,1.9228,1.9228,1.9228,1.9228,1.9153,1.9165,1.9172,1.9185,1.919,1.9197,1.9209,1.921,1.9221,1.9233,1.923,1.9245,1.9251,1.9263,1.9267,1.9278,1.9271,1.9277,1.9279,1.928,1.9281,1.9235,1.9281,1.928,1.928,1.928,1.928,0,1.9198,1.9202,1.9214,1.9225,1.9235,1.9227,1.9235,1.9244,1.9257,1.9264,1.9273,1.9289,1.93,1.9302,1.9313,1.9321,1.9318,1.9324,1.9323,1.9323,1.9288,1.9283,1.9327,1.9327,1.9327,1.9327,1.9327,1.9327,1.9223,1.9243,1.9243,1.9265,1.9268,1.9283,1.9289,1.9295,1.93,1.9317,1.9327,1.9328,1.9332,1.9343,1.9354,1.9354,1.9357,1.9365,1.9364,1.9331,1.9326,1.9321,1.9316,1.9367,1.9367,1.9398,1.9398,1.9398]}]]